Zurück zum Katalog

PEGASUS DEB

AktivPO
NORAD 24602·DEBRIS·🇺🇸 United States

Gestartet May 19, 1994 von Vandenberg Space Force Base

Loading…

Nächste Überflüge (nächste 24 Stunden)

TLE

AktuellSource: Space-Track

Epoche: Sep 14, 2026, 07:42 UTC

1 24602U 94029ZE  26257.32091345  .00002338  00000-0  74679-3 0  9999
2 24602  81.5222 116.3476 0726270 136.3136 229.7905 13.45502327457452

Verfolge PEGASUS DEB in Echtzeit mit AllMySat

Download on the App Store